| time (UTC) | temp F | wind direction | speed MPH | gust MPH | rain 1hr in | rain 24hr in | rain mn in | humidity % | barometer mb |
| 20260502231415 | 45 | 334 | 1.0 | 3.0 | 0.00 | 0.00 | 0.00 | 69 | 1008.7 |
| 20260502230411 | 45 | 334 | 0.0 | 2.0 | 0.00 | 0.00 | 0.00 | 69 | 1008.7 |
| 20260502225424 | 45 | 334 | 0.0 | 2.0 | 0.00 | 0.00 | 0.00 | 69 | 1008.7 |
| 20260502223425 | 46 | 7 | 1.0 | 4.0 | 0.00 | 0.00 | 0.00 | 69 | 1008.8 |
| 20260502222417 | 46 | 89 | 1.0 | 3.0 | 0.00 | 0.00 | 0.00 | 68 | 1008.7 |
| 20260502221421 | 47 | 344 | 1.0 | 4.0 | 0.00 | 0.00 | 0.00 | 67 | 1008.8 |
| 20260502220410 | 47 | 21 | 1.0 | 2.0 | 0.00 | 0.00 | 0.00 | 68 | 1008.7 |
| 20260502215405 | 47 | 21 | 1.0 | 2.0 | 0.00 | 0.00 | 0.00 | 67 | 1008.8 |
| 20260502214404 | 47 | 87 | 0.0 | 2.0 | 0.00 | 0.00 | 0.00 | 67 | 1008.9 |
| 20260502213429 | 47 | 87 | 1.0 | 3.0 | 0.00 | 0.00 | 0.00 | 68 | 1008.9 |
| 20260502212426 | 48 | 110 | 1.0 | 3.0 | 0.00 | 0.00 | 0.00 | 68 | 1008.8 |
| 20260502211437 | 48 | 338 | 1.0 | 2.0 | 0.00 | 0.00 | 0.00 | 67 | 1008.8 |
| 20260502210427 | 48 | 338 | 0.0 | 3.0 | 0.00 | 0.00 | 0.00 | 66 | 1008.8 |
| 20260502205408 | 48 | 288 | 1.0 | 3.0 | 0.00 | 0.00 | 0.00 | 67 | 1008.7 |
| 20260502204416 | 48 | 275 | 0.0 | 5.0 | 0.00 | 0.00 | 0.00 | 67 | 1008.8 |
| 20260502203406 | 49 | 220 | 2.0 | 5.0 | 0.00 | 0.00 | 0.00 | 67 | 1008.8 |
| 20260502202418 | 49 | 336 | 1.0 | 3.0 | 0.00 | 0.00 | 0.00 | 66 | 1008.8 |
| 20260502201404 | 49 | 12 | 1.0 | 3.0 | 0.00 | 0.00 | 0.00 | 66 | 1008.8 |
| 20260502200400 | 49 | 137 | 1.0 | 3.0 | 0.00 | 0.00 | 0.00 | 65 | 1008.8 |
| 20260502195355 | 50 | 286 | 1.0 | 2.0 | 0.00 | 0.00 | 0.00 | 65 | 1008.8 |
| 20260502194405 | 50 | 286 | 1.0 | 2.0 | 0.00 | 0.00 | 0.00 | 64 | 1008.7 |
| 20260502193345 | 51 | 286 | 1.0 | 3.0 | 0.00 | 0.00 | 0.00 | 63 | 1008.7 |
| 20260502192343 | 51 | 286 | 1.0 | 3.0 | 0.00 | 0.00 | 0.00 | 63 | 1008.7 |
| 20260502191342 | 52 | 286 | 0.0 | 2.0 | 0.00 | 0.00 | 0.00 | 61 | 1008.6 |
| 20260502190333 | 52 | 286 | 1.0 | 3.0 | 0.00 | 0.00 | 0.00 | 59 | 1008.7 |
| 20260502185339 | 52 | 286 | 1.0 | 4.0 | 0.00 | 0.00 | 0.00 | 59 | 1008.5 |
| 20260502184346 | 53 | 129 | 1.0 | 4.0 | 0.00 | 0.00 | 0.00 | 59 | 1008.3 |
| 20260502183301 | 54 | 80 | 1.0 | 4.0 | 0.00 | 0.00 | 0.00 | 57 | 1008.3 |
| 20260502182254 | 55 | 109 | 1.0 | 4.0 | 0.00 | 0.00 | 0.00 | 56 | 1008.2 |
| 20260502181251 | 55 | 14 | 1.0 | 3.0 | 0.00 | 0.00 | 0.00 | 54 | 1008.0 |
| 20260502180249 | 57 | 297 | 1.0 | 3.0 | 0.00 | 0.00 | 0.00 | 52 | 1008.0 |
| 20260502170211 | 59 | 284 | 3.0 | 11.0 | 0.00 | 0.00 | 0.00 | 45 | 1007.8 |
| 20260502164217 | 62 | 247 | 6.0 | 12.0 | 0.00 | 0.00 | 0.00 | 42 | 1007.8 |
| 20260502163230 | 63 | 255 | 5.0 | 14.0 | 0.00 | 0.00 | 0.00 | 41 | 1007.9 |
| 20260502162157 | 63 | 240 | 6.0 | 14.0 | 0.00 | 0.00 | 0.00 | 40 | 1008.0 |
| 20260502161156 | 64 | 236 | 6.0 | 14.0 | 0.00 | 0.00 | 0.00 | 39 | 1008.1 |
| 20260502160209 | 64 | 272 | 6.0 | 12.0 | 0.00 | 0.00 | 0.00 | 41 | 1008.1 |
| 20260502152156 | 65 | 238 | 7.0 | 13.0 | 0.00 | 0.00 | 0.00 | 39 | 1008.1 |
| 20260502151157 | 65 | 249 | 5.0 | 15.0 | 0.00 | 0.00 | 0.00 | 40 | 1008.2 |
| 20260502150155 | 65 | 244 | 8.0 | 15.0 | 0.00 | 0.00 | 0.00 | 43 | 1008.2 |
| 20260502130130 | 65 | 259 | 7.0 | 13.0 | 0.00 | 0.00 | 0.00 | 40 | 1009.1 |
| 20260502123038 | 65 | 281 | 7.0 | 12.0 | 0.00 | 0.00 | 0.00 | 45 | 1009.3 |
| 20260502122057 | 65 | 262 | 7.0 | 14.0 | 0.00 | 0.00 | 0.00 | 44 | 1009.3 |
| 20260502121109 | 65 | 161 | 7.0 | 14.0 | 0.00 | 0.00 | 0.00 | 48 | 1009.4 |
| 20260502115037 | 66 | 168 | 5.0 | 10.0 | 0.00 | 0.00 | 0.00 | 48 | 1009.4 |
| 20260502114040 | 67 | 301 | 3.0 | 8.0 | 0.00 | 0.00 | 0.00 | 42 | 1009.4 |
| 20260502112051 | 68 | 30 | 2.0 | 7.0 | 0.00 | 0.00 | 0.00 | 48 | 1009.6 |
| 20260502111120 | 67 | 128 | 2.0 | 6.0 | 0.00 | 0.00 | 0.00 | 47 | 1009.8 |
| 20260502110018 | 67 | 93 | 2.0 | 7.0 | 0.00 | 0.00 | 0.00 | 51 | 1009.8 |
| 20260502105025 | 66 | 74 | 2.0 | 6.0 | 0.00 | 0.00 | 0.00 | 52 | 1009.9 |
| 20260502104001 | 66 | 358 | 2.0 | 6.0 | 0.00 | 0.00 | 0.00 | 41 | 1009.9 |
| 20260502102957 | 66 | 153 | 2.0 | 8.0 | 0.00 | 0.00 | 0.00 | 51 | 1009.9 |
| 20260502101956 | 66 | 344 | 3.0 | 8.0 | 0.00 | 0.00 | 0.00 | 53 | 1010.3 |
| 20260502090946 | 63 | 121 | 2.0 | 6.0 | 0.00 | 0.00 | 0.00 | 57 | 1010.6 |
| 20260502070911 | 56 | 79 | 0.0 | 1.0 | 0.00 | 0.00 | 0.00 | 59 | 1011.4 |
| 20260502065910 | 55 | 79 | 0.0 | 1.0 | 0.00 | 0.00 | 0.00 | 59 | 1011.4 |
| 20260502064904 | 53 | 79 | 0.0 | 1.0 | 0.00 | 0.00 | 0.00 | 63 | 1011.6 |
| 20260502063905 | 51 | 79 | 0.0 | 1.0 | 0.00 | 0.00 | 0.00 | 68 | 1011.6 |
| 20260502061859 | 48 | 79 | 0.0 | 1.0 | 0.00 | 0.00 | 0.00 | 74 | 1011.6 |
| 20260502060859 | 46 | 79 | 0.0 | 0.0 | 0.00 | 0.00 | 0.00 | 71 | 1011.7 |
| 20260502055855 | 46 | 79 | 0.0 | 0.0 | 0.00 | 0.00 | 0.00 | 76 | 1011.7 |
| 20260502054853 | 45 | 79 | 0.0 | 0.0 | 0.00 | 0.00 | 0.00 | 76 | 1011.8 |
| 20260502053850 | 45 | 79 | 0.0 | 0.0 | 0.00 | 0.00 | 0.00 | 75 | 1011.9 |
| 20260502051858 | 44 | 79 | 0.0 | 1.0 | 0.00 | 0.00 | 0.00 | 72 | 1011.7 |
| 20260502050756 | 43 | 79 | 0.0 | 2.0 | 0.00 | 0.00 | 0.00 | 74 | 1011.9 |
| 20260502044747 | 42 | 79 | 1.0 | 2.0 | 0.00 | 0.00 | 0.00 | 75 | 1011.8 |
| 20260502043747 | 42 | 79 | 1.0 | 2.0 | 0.00 | 0.00 | 0.00 | 74 | 1011.8 |
| 20260502042806 | 42 | 79 | 0.0 | 2.0 | 0.00 | 0.00 | 0.00 | 74 | 1011.9 |
| 20260502035755 | 41 | 79 | 0.0 | 2.0 | 0.00 | 0.00 | 0.00 | 74 | 1011.9 |
| 20260502034741 | 41 | 79 | 0.0 | 2.0 | 0.00 | 0.00 | 0.00 | 74 | 1011.9 |
| 20260502033737 | 41 | 79 | 1.0 | 2.0 | 0.00 | 0.00 | 0.00 | 74 | 1011.8 |
| 20260502031736 | 41 | 79 | 0.0 | 2.0 | 0.00 | 0.00 | 0.00 | 74 | 1011.9 |
| 20260502030731 | 41 | 79 | 1.0 | 2.0 | 0.00 | 0.00 | 0.00 | 74 | 1011.9 |
| 20260502025723 | 41 | 79 | 0.0 | 2.0 | 0.00 | 0.00 | 0.00 | 74 | 1011.9 |
| 20260502024719 | 42 | 79 | 0.0 | 2.0 | 0.00 | 0.00 | 0.00 | 73 | 1011.9 |
| 20260502023725 | 42 | 79 | 0.0 | 2.0 | 0.00 | 0.00 | 0.00 | 72 | 1011.9 |
| 20260502022727 | 42 | 79 | 1.0 | 2.0 | 0.00 | 0.00 | 0.00 | 71 | 1012.0 |
| 20260502021724 | 42 | 32 | 0.0 | 2.0 | 0.00 | 0.00 | 0.00 | 72 | 1011.9 |
| 20260502020655 | 42 | 32 | 1.0 | 2.0 | 0.00 | 0.00 | 0.00 | 73 | 1011.8 |
| 20260502015647 | 42 | 32 | 0.0 | 2.0 | 0.00 | 0.00 | 0.00 | 72 | 1011.9 |
| 20260502013647 | 42 | 133 | 1.0 | 3.0 | 0.00 | 0.00 | 0.00 | 72 | 1012.1 |
| 20260502011635 | 42 | 14 | 0.0 | 2.0 | 0.00 | 0.00 | 0.00 | 73 | 1012.1 |
| 20260502010631 | 42 | 14 | 0.0 | 2.0 | 0.00 | 0.00 | 0.00 | 73 | 1012.2 |
| 20260502005618 | 43 | 14 | 0.0 | 1.0 | 0.00 | 0.00 | 0.00 | 73 | 1012.2 |
| 20260502004614 | 43 | 14 | 0.0 | 2.0 | 0.00 | 0.00 | 0.00 | 72 | 1012.4 |
| 20260502003613 | 43 | 14 | 1.0 | 3.0 | 0.00 | 0.00 | 0.00 | 72 | 1012.4 |
| 20260502002610 | 43 | 14 | 1.0 | 3.0 | 0.00 | 0.00 | 0.00 | 72 | 1012.5 |
| 20260502000609 | 43 | 14 | 1.0 | 3.0 | 0.00 | 0.00 | 0.00 | 73 | 1012.5 |
| 20260501235608 | 43 | 14 | 0.0 | 2.0 | 0.00 | 0.00 | 0.00 | 73 | 1012.7 |
| 20260501234607 | 44 | 14 | 0.0 | 2.0 | 0.00 | 0.00 | 0.00 | 72 | 1012.8 |
| 20260501232605 | 44 | 14 | 0.0 | 2.0 | 0.00 | 0.00 | 0.00 | 72 | 1012.8 |